TimeCDT,TemperatureF,Dew PointF,Humidity,Sea Level PressureIn,VisibilityMPH,Wind Direction,Wind SpeedMPH,Gust SpeedMPH,PrecipitationIn,Events,Conditions,WindDirDegrees,DateUTC
12:15 AM,62.1,46.9,58,30.13,10.0,SSE,8.1,-,N/A,,Clear,160,2012-09-10 05:15:00
12:35 AM,63.0,47.3,57,30.13,10.0,SSE,8.1,-,N/A,,Clear,160,2012-09-10 05:35:00
12:55 AM,63.0,46.9,56,30.13,10.0,SSE,8.1,-,N/A,,Clear,160,2012-09-10 05:55:00
1:15 AM,62.6,47.3,57,30.12,10.0,SSE,9.2,-,N/A,,Clear,160,2012-09-10 06:15:00
1:35 AM,62.1,47.5,59,30.12,10.0,SSE,8.1,-,N/A,,Clear,160,2012-09-10 06:35:00
1:55 AM,62.4,47.5,58,30.12,10.0,SSE,6.9,-,N/A,,Clear,160,2012-09-10 06:55:00
2:15 AM,61.7,47.5,60,30.12,10.0,South,6.9,-,N/A,,Clear,170,2012-09-10 07:15:00
2:35 AM,61.0,47.5,61,30.11,10.0,SSE,8.1,-,N/A,,Clear,160,2012-09-10 07:35:00
2:55 AM,60.1,47.7,64,30.11,10.0,SSE,9.2,-,N/A,,Clear,150,2012-09-10 07:55:00
3:15 AM,60.8,47.7,62,30.11,10.0,South,8.1,-,N/A,,Clear,170,2012-09-10 08:15:00
3:35 AM,59.5,47.7,65,30.11,10.0,South,6.9,-,N/A,,Clear,170,2012-09-10 08:35:00
3:55 AM,59.4,47.7,65,30.11,10.0,SSE,5.8,-,N/A,,Clear,160,2012-09-10 08:55:00
4:15 AM,59.0,47.7,66,30.10,10.0,SSE,5.8,-,N/A,,Clear,160,2012-09-10 09:15:00
4:35 AM,57.7,47.7,69,30.10,10.0,SSE,6.9,-,N/A,,Clear,150,2012-09-10 09:35:00
4:55 AM,57.2,47.5,70,30.10,10.0,SSE,8.1,-,N/A,,Clear,150,2012-09-10 09:55:00
5:15 AM,56.3,47.7,73,30.09,10.0,SSE,4.6,-,N/A,,Clear,150,2012-09-10 10:15:00
5:35 AM,56.7,47.7,72,30.09,10.0,SE,6.9,-,N/A,,Clear,130,2012-09-10 10:35:00
5:55 AM,56.3,47.7,73,30.10,10.0,SSE,5.8,-,N/A,,Clear,150,2012-09-10 10:55:00
6:15 AM,55.8,47.5,74,30.10,10.0,SSE,6.9,-,N/A,,Clear,160,2012-09-10 11:15:00
6:35 AM,56.8,47.8,72,30.10,10.0,SSE,9.2,-,N/A,,Clear,160,2012-09-10 11:35:00
6:55 AM,56.3,47.7,73,30.11,10.0,South,8.1,-,N/A,,Clear,170,2012-09-10 11:55:00
7:15 AM,56.5,47.7,72,30.11,10.0,SSE,9.2,-,N/A,,Clear,160,2012-09-10 12:15:00
7:35 AM,57.2,47.8,71,30.11,10.0,SSE,9.2,-,N/A,,Clear,160,2012-09-10 12:35:00
7:55 AM,58.1,48.2,70,30.11,10.0,South,8.1,-,N/A,,Clear,170,2012-09-10 12:55:00
8:15 AM,60.1,48.6,66,30.10,10.0,SSE,10.4,-,N/A,,Clear,160,2012-09-10 13:15:00
8:35 AM,61.9,49.1,63,30.09,10.0,SSE,11.5,-,N/A,,Clear,160,2012-09-10 13:35:00
8:55 AM,63.7,49.3,59,30.10,10.0,South,11.5,19.6,N/A,,Clear,180,2012-09-10 13:55:00
9:15 AM,64.9,50.0,58,30.09,10.0,South,10.4,16.1,N/A,,Clear,190,2012-09-10 14:15:00
9:35 AM,65.8,50.0,57,30.08,10.0,South,13.8,19.6,N/A,,Clear,170,2012-09-10 14:35:00
9:55 AM,68.2,50.4,53,30.07,10.0,SSE,12.7,18.4,N/A,,Clear,160,2012-09-10 14:55:00
10:15 AM,69.8,50.2,50,30.08,10.0,SSE,11.5,19.6,N/A,,Clear,160,2012-09-10 15:15:00
10:35 AM,71.8,49.3,45,30.07,10.0,South,19.6,26.5,N/A,,Clear,170,2012-09-10 15:35:00
10:55 AM,73.6,49.1,42,30.06,10.0,South,21.9,26.5,N/A,,Clear,170,2012-09-10 15:55:00
11:15 AM,75.2,49.5,40,30.05,10.0,SSE,11.5,26.5,N/A,,Clear,160,2012-09-10 16:15:00
11:35 AM,76.1,48.9,38,30.04,10.0,SSE,20.7,26.5,N/A,,Clear,160,2012-09-10 16:35:00
11:55 AM,76.8,48.4,37,30.04,10.0,SSE,19.6,28.8,N/A,,Clear,160,2012-09-10 16:55:00
12:15 PM,79.0,48.7,35,30.03,10.0,SSE,20.7,25.3,N/A,,Clear,160,2012-09-10 17:15:00
12:35 PM,79.2,48.4,34,30.02,10.0,SSE,23.0,28.8,N/A,,Clear,160,2012-09-10 17:35:00
12:55 PM,80.2,48.7,33,30.01,10.0,SSE,16.1,26.5,N/A,,Clear,160,2012-09-10 17:55:00
1:15 PM,81.1,48.6,32,30.00,10.0,South,18.4,26.5,N/A,,Clear,180,2012-09-10 18:15:00
1:35 PM,82.8,48.6,30,29.99,10.0,South,15.0,26.5,N/A,,Clear,170,2012-09-10 18:35:00
1:55 PM,83.5,48.7,30,29.98,10.0,SSE,18.4,23.0,N/A,,Clear,160,2012-09-10 18:55:00
2:15 PM,84.7,48.6,28,29.97,10.0,South,16.1,28.8,N/A,,Clear,180,2012-09-10 19:15:00
2:35 PM,85.5,48.7,28,29.96,10.0,South,15.0,26.5,N/A,,Clear,170,2012-09-10 19:35:00
2:55 PM,86.5,48.9,27,29.95,10.0,South,18.4,23.0,N/A,,Clear,170,2012-09-10 19:55:00
3:15 PM,86.7,48.2,26,29.94,10.0,South,20.7,26.5,N/A,,Clear,170,2012-09-10 20:15:00
3:35 PM,87.3,48.2,26,29.93,10.0,South,20.7,25.3,N/A,,Clear,190,2012-09-10 20:35:00
3:55 PM,88.0,48.2,25,29.92,10.0,South,13.8,25.3,N/A,,Clear,180,2012-09-10 20:55:00
4:15 PM,88.5,48.4,25,29.92,10.0,South,17.3,27.6,N/A,,Clear,190,2012-09-10 21:15:00
4:35 PM,88.2,47.8,25,29.92,10.0,South,16.1,27.6,N/A,,Clear,180,2012-09-10 21:35:00
4:55 PM,88.5,47.7,24,29.91,10.0,South,17.3,25.3,N/A,,Clear,170,2012-09-10 21:55:00
5:15 PM,88.3,48.2,25,29.91,10.0,SSE,15.0,29.9,N/A,,Clear,160,2012-09-10 22:15:00
5:35 PM,88.0,48.2,25,29.90,10.0,South,16.1,25.3,N/A,,Clear,170,2012-09-10 22:35:00
5:55 PM,88.0,48.7,26,29.89,10.0,South,16.1,23.0,N/A,,Clear,180,2012-09-10 22:55:00
6:15 PM,87.4,48.4,26,29.89,10.0,South,17.3,20.7,N/A,,Clear,170,2012-09-10 23:15:00
6:35 PM,86.5,48.2,26,29.88,10.0,South,17.3,26.5,N/A,,Clear,170,2012-09-10 23:35:00
6:55 PM,85.6,48.4,27,29.88,10.0,South,13.8,27.6,N/A,,Clear,170,2012-09-10 23:55:00
7:15 PM,84.2,48.7,29,29.88,10.0,South,12.7,23.0,N/A,,Clear,170,2012-09-11 00:15:00
7:35 PM,82.9,49.1,31,29.87,10.0,SSE,13.8,20.7,N/A,,Clear,160,2012-09-11 00:35:00
7:55 PM,81.3,49.5,33,29.87,10.0,SSE,12.7,19.6,N/A,,Clear,160,2012-09-11 00:55:00
8:15 PM,79.9,49.8,35,29.88,10.0,SSE,13.8,18.4,N/A,,Clear,160,2012-09-11 01:15:00
8:35 PM,79.2,50.0,36,29.89,10.0,SSE,10.4,17.3,N/A,,Clear,160,2012-09-11 01:35:00
8:55 PM,78.8,50.0,36,29.89,10.0,SSE,12.7,23.0,N/A,,Clear,160,2012-09-11 01:55:00
9:15 PM,77.4,49.6,38,29.89,10.0,SSE,9.2,-,N/A,,Clear,160,2012-09-11 02:15:00
9:35 PM,76.5,49.5,39,29.89,10.0,SSE,11.5,17.3,N/A,,Clear,150,2012-09-11 02:35:00
9:55 PM,75.2,49.6,41,29.90,10.0,SE,10.4,17.3,N/A,,Clear,140,2012-09-11 02:55:00
10:15 PM,73.9,50.0,43,29.89,10.0,SSE,13.8,18.4,N/A,,Clear,150,2012-09-11 03:15:00
10:35 PM,73.6,50.2,44,29.89,10.0,SSE,12.7,18.4,N/A,,Clear,150,2012-09-11 03:35:00
10:55 PM,72.7,50.7,46,29.89,10.0,SSE,16.1,20.7,N/A,,Clear,150,2012-09-11 03:55:00
11:15 PM,72.0,51.1,48,29.89,10.0,SSE,11.5,20.7,N/A,,Clear,150,2012-09-11 04:15:00
11:35 PM,71.6,51.3,49,29.89,10.0,SSE,15.0,25.3,N/A,,Clear,150,2012-09-11 04:35:00
11:55 PM,71.1,51.8,50,29.89,10.0,SSE,13.8,19.6,N/A,,Clear,150,2012-09-11 04:55:00